パンスターズ彗星

C/2017 U5 ( PanSTARRS )

English version
Home page
Updated on December 24, 2017

---------------------------------------------------------------------

・ プロフィール

発見日 2017年10月30日
発見光度 21.3等
発見者 Pan-STARRS 1 telescope (Haleakala)

・ 軌道要素

Epoch 2018 Jan. 2.0 TT = JDT 2458120.5
T 2017 Dec. 18.48062 TT                                 MPCW
q   4.3273916            (2000.0)            P               Q
n   0.01414437     Peri.  262.04773     +0.40425182     -0.90977439
a  16.9335073      Node   163.12753     +0.91352167     +0.39648894
e   0.7444480      Incl.   18.95795     +0.04537198     +0.12291088
P  69.68
From 69 observations 2017 Oct. 30-Nov. 27, mean residual 0".4.

・ 光度変化

        m1 = 11.5 + 5 logΔ + 10.0 log r

---------------------------------------------------------------------

軌道要素はM.P.E.C. 2017-X08に掲載されたものです。
光度グラフはComet for Windowsで作成したものです。

---------------------------------------------------------------------

Copyright(C) Seiichi Yoshida (comet@aerith.net). All rights reserved.